When you browse on this site, cookies collect data to enhance your experience and personalize the content and advertising you see.
Visit our Privacy Policy to learn more. By continuing to use the site, you agree to this use of cookies and data.
  • In Switzerland
  • List of Countries
  • For 7 days
  • Water Temperature
  • Satellite Maps
  • Weather Map
  • Weather Widgets
  • user-avatar
    Login

    Hourly Weather Barra

    Today, 24 January, Thursday

    Time Temperature Precipitation Wind Pressure Humidity
    00:00 +25°C° 0.3 mm 1 mps 746 mmHg 95%
    01:00 +25°C° 0.3 mm 2 mps 746 mmHg 95%
    02:00 +25°C° 0.4 mm 1 mps 746 mmHg 96%
    03:00 +25°C° 0.4 mm 1 mps 745 mmHg 96%
    04:00 +25°C° 0 mm 2 mps 746 mmHg 96%
    05:00 +25°C° 0.5 mm 2 mps 746 mmHg 95%
    06:00 +26°C° 0.5 mm 2 mps 746 mmHg 94%
    07:00 +26°C° 0.5 mm 2 mps 746 mmHg 94%
    08:00 +27°C° 0.6 mm 2 mps 746 mmHg 88%
    09:00 +29°C° 0.6 mm 2 mps 746 mmHg 82%
    10:00 +31°C° 0 mm 2 mps 746 mmHg 73%
    11:00 +31°C° 0.4 mm 2 mps 746 mmHg 70%
    12:00 +32°C° 0.4 mm 2 mps 745 mmHg 68%
    13:00 +33°C° 0.4 mm 3 mps 745 mmHg 66%
    14:00 +33°C° 0.2 mm 3 mps 745 mmHg 69%
    15:00 +31°C° 0.2 mm 3 mps 745 mmHg 71%
    16:00 +31°C° 0.2 mm 3 mps 744 mmHg 73%
    17:00 +29°C° 0.5 mm 3 mps 745 mmHg 79%
    18:00 +28°C° 0.5 mm 3 mps 745 mmHg 86%
    19:00 +27°C° 0.5 mm 2 mps 746 mmHg 92%
    20:00 +27°C° 1 mm 2 mps 746 mmHg 93%
    21:00 +26°C° 1 mm 2 mps 746 mmHg 93%
    22:00 +26°C° 1 mm 2 mps 747 mmHg 94%
    23:00 +26°C° 1 mm 2 mps 747 mmHg 94%

    Tomorrow, 25 January, Friday

    Time Temperature Precipitation Wind Pressure Humidity
    00:00 +26°C° 1 mm 1 mps 746 mmHg 94%
    01:00 +26°C° 1 mm 1 mps 746 mmHg 94%
    02:00 +26°C° 0.6 mm 1 mps 746 mmHg 95%
    03:00 +26°C° 0.6 mm 1 mps 746 mmHg 95%
    04:00 +25°C° 0.6 mm 1 mps 745 mmHg 95%
    05:00 +26°C° 0.6 mm 1 mps 745 mmHg 95%
    06:00 +26°C° 0.6 mm 2 mps 746 mmHg 94%
    07:00 +26°C° 0.6 mm 2 mps 746 mmHg 93%
    08:00 +26°C° 1.7 mm 2 mps 746 mmHg 92%
    09:00 +27°C° 1.7 mm 3 mps 746 mmHg 91%
    10:00 +27°C° 1.7 mm 3 mps 746 mmHg 90%
    11:00 +27°C° 1.8 mm 3 mps 746 mmHg 91%
    12:00 +27°C° 1.8 mm 3 mps 746 mmHg 92%
    13:00 +26°C° 1.8 mm 3 mps 745 mmHg 94%
    14:00 +26°C° 2.1 mm 3 mps 745 mmHg 94%
    15:00 +26°C° 2.1 mm 3 mps 745 mmHg 95%
    16:00 +26°C° 2.1 mm 3 mps 744 mmHg 95%
    17:00 +26°C° 1.7 mm 3 mps 744 mmHg 95%
    18:00 +26°C° 1.7 mm 4 mps 744 mmHg 95%
    19:00 +26°C° 1.7 mm 4 mps 744 mmHg 95%
    20:00 +26°C° 1.3 mm 4 mps 745 mmHg 96%
    21:00 +26°C° 1.3 mm 4 mps 746 mmHg 96%
    22:00 +26°C° 1.3 mm 4 mps 746 mmHg 96%
    23:00 +26°C° 1.6 mm 4 mps 746 mmHg 96%

    Day after tomorrow, 26 January, Saturday

    Time Temperature Precipitation Wind Pressure Humidity
    00:00 +26°C° 1.6 mm 5 mps 745 mmHg 95%
    01:00 +25°C° 1.6 mm 5 mps 745 mmHg 95%
    02:00 +26°C° 1.5 mm 5 mps 744 mmHg 95%
    03:00 +26°C° 1.5 mm 6 mps 743 mmHg 95%
    04:00 +26°C° 1.5 mm 6 mps 742 mmHg 95%
    05:00 +26°C° 3.5 mm 7 mps 742 mmHg 95%
    06:00 +26°C° 3.5 mm 8 mps 743 mmHg 95%
    07:00 +26°C° 3.5 mm 8 mps 743 mmHg 95%
    08:00 +26°C° 18.1 mm 8 mps 743 mmHg 95%
    09:00 +26°C° 18.1 mm 8 mps 743 mmHg 96%
    10:00 +26°C° 18.1 mm 8 mps 743 mmHg 96%
    11:00 +24°C° 38 mm 7 mps 743 mmHg 96%
    12:00 +24°C° 38 mm 6 mps 742 mmHg 97%
    13:00 +25°C° 38 mm 5 mps 742 mmHg 97%
    14:00 +25°C° 18.9 mm 5 mps 741 mmHg 97%
    15:00 +25°C° 18.9 mm 5 mps 741 mmHg 97%
    16:00 +25°C° 18.9 mm 5 mps 741 mmHg 96%
    17:00 +25°C° 2 mm 5 mps 741 mmHg 96%
    18:00 +25°C° 2 mm 5 mps 741 mmHg 96%
    19:00 +25°C° 2 mm 5 mps 742 mmHg 96%
    20:00 +25°C° 2.6 mm 4 mps 742 mmHg 97%
    21:00 +25°C° 2.6 mm 3 mps 742 mmHg 97%
    22:00 +26°C° 2.6 mm 2 mps 743 mmHg 97%
    23:00 +25°C° 0.7 mm 2 mps 742 mmHg 97%

    27 January, Sunday

    Time Temperature Precipitation Wind Pressure Humidity
    00:00 +25°C° 0.7 mm 1 mps 742 mmHg 98%
    01:00 +25°C° 0.7 mm 1 mps 742 mmHg 98%
    02:00 +25°C° 0 mm 1 mps 741 mmHg 98%
    03:00 +25°C° 0 mm 1 mps 741 mmHg 98%
    04:00 +25°C° 0 mm 1 mps 741 mmHg 98%
    05:00 +25°C° 0 mm 1 mps 741 mmHg 97%
    06:00 +26°C° 0 mm 1 mps 742 mmHg 97%
    07:00 +26°C° 0 mm 1 mps 743 mmHg 96%
    08:00 +28°C° 0 mm 1 mps 743 mmHg 85%
    09:00 +30°C° 0 mm 1 mps 743 mmHg 73%
    10:00 +32°C° 0 mm 1 mps 744 mmHg 61%
    11:00 +33°C° 0 mm 1 mps 743 mmHg 60%
    12:00 +34°C° 0 mm 2 mps 743 mmHg 58%
    13:00 +35°C° 0 mm 3 mps 742 mmHg 56%
    14:00 +34°C° 0 mm 3 mps 742 mmHg 59%
    15:00 +33°C° 0 mm 3 mps 742 mmHg 62%
    16:00 +33°C° 0 mm 3 mps 741 mmHg 65%
    17:00 +30°C° 0 mm 3 mps 742 mmHg 71%
    18:00 +29°C° 0 mm 2 mps 743 mmHg 78%
    19:00 +28°C° 0 mm 2 mps 743 mmHg 84%
    20:00 +27°C° 0.4 mm 2 mps 744 mmHg 87%
    21:00 +27°C° 0.4 mm 2 mps 744 mmHg 90%
    22:00 +27°C° 0.4 mm 2 mps 745 mmHg 93%
    23:00 +26°C° 1.2 mm 2 mps 745 mmHg 94%

    28 January, Monday

    Time Temperature Precipitation Wind Pressure Humidity
    00:00 +26°C° 1.2 mm 2 mps 745 mmHg 95%
    01:00 +26°C° 1.2 mm 2 mps 744 mmHg 96%
    02:00 +26°C° 1.6 mm 2 mps 744 mmHg 96%
    03:00 +26°C° 1.6 mm 1 mps 744 mmHg 96%
    04:00 +26°C° 1.6 mm 1 mps 744 mmHg 96%
    05:00 +26°C° 1.1 mm 1 mps 744 mmHg 96%
    06:00 +26°C° 1.1 mm 1 mps 744 mmHg 96%
    07:00 +26°C° 1.1 mm 1 mps 745 mmHg 96%
    08:00 +27°C° 0.9 mm 1 mps 745 mmHg 93%
    09:00 +28°C° 0.9 mm 1 mps 745 mmHg 90%
    10:00 +29°C° 0.9 mm 2 mps 745 mmHg 87%
    11:00 +29°C° 0.9 mm 2 mps 745 mmHg 87%
    12:00 +29°C° 0.9 mm 2 mps 745 mmHg 88%
    13:00 +29°C° 0.9 mm 2 mps 744 mmHg 88%
    14:00 +29°C° 0.6 mm 2 mps 744 mmHg 87%
    15:00 +29°C° 0.6 mm 2 mps 744 mmHg 85%
    16:00 +29°C° 0.6 mm 2 mps 743 mmHg 84%
    17:00 +28°C° 1.1 mm 2 mps 744 mmHg 88%
    18:00 +27°C° 1.1 mm 2 mps 744 mmHg 92%
    19:00 +26°C° 1.1 mm 1 mps 745 mmHg 96%
    20:00 +26°C° 1.7 mm 2 mps 745 mmHg 97%
    21:00 +26°C° 1.7 mm 2 mps 746 mmHg 97%
    22:00 +26°C° 1.7 mm 2 mps 746 mmHg 97%
    23:00 +26°C° 1.2 mm 2 mps 746 mmHg 97%

    29 January, Tuesday

    Time Temperature Precipitation Wind Pressure Humidity
    00:00 +26°C° 1.2 mm 2 mps 745 mmHg 97%
    01:00 +26°C° 1.2 mm 2 mps 745 mmHg 97%
    02:00 +26°C° 3.1 mm 2 mps 744 mmHg 97%
    03:00 +26°C° 3.1 mm 2 mps 744 mmHg 98%
    04:00 +26°C° 3.1 mm 3 mps 743 mmHg 98%
    05:00 +26°C° 12.3 mm 3 mps 744 mmHg 98%
    06:00 +26°C° 12.3 mm 3 mps 744 mmHg 98%
    07:00 +26°C° 12.3 mm 4 mps 745 mmHg 98%
    08:00 +26°C° 13.7 mm 4 mps 745 mmHg 98%
    09:00 +26°C° 13.7 mm 3 mps 745 mmHg 98%
    10:00 +26°C° 13.7 mm 3 mps 745 mmHg 98%
    11:00 +26°C° 7.6 mm 3 mps 745 mmHg 98%
    12:00 +26°C° 7.6 mm 3 mps 744 mmHg 98%
    13:00 +27°C° 7.6 mm 3 mps 744 mmHg 98%
    14:00 +27°C° 8.2 mm 2 mps 743 mmHg 96%
    15:00 +27°C° 8.2 mm 2 mps 743 mmHg 94%
    16:00 +28°C° 8.2 mm 2 mps 742 mmHg 92%
    17:00 +27°C° 7.1 mm 3 mps 743 mmHg 93%
    18:00 +27°C° 7.1 mm 3 mps 743 mmHg 94%
    19:00 +27°C° 7.1 mm 3 mps 743 mmHg 95%
    20:00 +27°C° 5.8 mm 3 mps 743 mmHg 96%
    21:00 +26°C° 5.8 mm 3 mps 744 mmHg 97%
    22:00 +26°C° 5.8 mm 3 mps 744 mmHg 97%
    23:00 +26°C° 2.1 mm 3 mps 743 mmHg 97%
    Show more